Location: Rounton
(54.4000°N, 1.3500°W)
Time: 04:53:13
(UTC+00:00)

A-11 Canister half - Pass Details

Date: 06 December 2021
Orbit: 1516 x 1684 km, 47.2° (Epoch: 21 January)

Event Time Altitude Azimuth Distance (km) Brightness Sun altitude
Rises 08:30:58 0° 249° (WSW) 4,787 11.3 1.4°
Reaches altitude 10° 08:34:05 10° 245° (WSW) 3,825 10.9 1.7°
Maximum altitude 08:43:32 56° 171° (S) 1,901 10.0 2.7°
Drops below altitude 10° 08:53:16 10° 97° (E) 3,936 12.0 3.6°
Sets 08:56:32 0° 93° (E) 4,934 12.4 3.9°
